Location: Cointrin
(46.2167°N, 6.1167°E)
Time: 16:32:14
(UTC+00:00)

Cosmos 1553 Rocket - Pass Details

Date: 08 February 2023
Orbit: 942 x 1007 km, 82.9° (Epoch: 22 March)

Event Time Altitude Azimuth Distance (km) Brightness Sun altitude
Rises 18:13:03 0° 196° (SSW) 3,601 7.3 -14.7°
Reaches altitude 10° 18:15:32 10° 199° (SSW) 2,666 6.6 -15.1°
Maximum altitude 18:21:35 66° 281° (W) 1,046 4.4 -16.2°
Drops below altitude 10° 18:27:47 10° 4° (N) 2,722 6.3 -17.2°
Sets 18:30:21 0° 7° (N) 3,683 6.9 -17.7°
